XRC1025 DTTR-DTTA

Flight info

Callsign XRC1025
Flight time N/A
Altitude 35000
Route EBA UP161 GAB/N0459F360 DCT GINEN DCT KIRAS/N0461F350 DCT TUC
Aircraft B738/M-SDE2E3FGHIRWXY/LB1

Departure

Time 2026-04-22 09:44
Airport El Borma Airport (DTTR)

Arrival

Time N/A
Airport Tunis Carthage International Airport (DTTA)
Time Latitude Longitude Altitude Speed Heading
2026-04-22 09:23 31.70144 9.25659 855 ft 0 kts 206°
2026-04-22 09:39 31.70138 9.25664 843 ft 1 kts 142°
2026-04-22 09:39 31.70137 9.25682 856 ft 4 kts 75°
2026-04-22 09:40 31.70166 9.25707 847 ft 8 kts 21°
2026-04-22 09:40 31.70224 9.25734 851 ft 10 kts 21°
2026-04-22 09:40 31.70297 9.25726 851 ft 13 kts 311°
2026-04-22 09:40 31.70340 9.25606 848 ft 19 kts 291°
2026-04-22 09:41 31.70397 9.25443 851 ft 22 kts 294°
2026-04-22 09:41 31.70456 9.25276 848 ft 22 kts 292°
2026-04-22 09:41 31.70515 9.25114 847 ft 21 kts 292°
2026-04-22 09:41 31.70571 9.24956 849 ft 21 kts 292°
2026-04-22 09:42 31.70625 9.24803 847 ft 20 kts 293°
2026-04-22 09:42 31.70678 9.24651 847 ft 21 kts 294°
2026-04-22 09:42 31.70751 9.24447 850 ft 33 kts 292°
2026-04-22 09:42 31.70827 9.24221 849 ft 20 kts 279°
2026-04-22 09:43 31.70830 9.24126 854 ft 8 kts 286°
2026-04-22 09:43 31.70846 9.24119 851 ft 3 kts
2026-04-22 09:43 31.70856 9.24139 854 ft 3 kts 83°
2026-04-22 09:43 31.70849 9.24168 840 ft 6 kts 108°
2026-04-22 09:44 31.70758 9.24424 851 ft 68 kts 112°
2026-04-22 09:44 31.70491 9.25179 843 ft 130 kts 112°
2026-04-22 09:44 31.70073 9.26341 911 ft 174 kts 111°
2026-04-22 09:44 31.69594 9.27640 1664 ft 170 kts 111°
2026-04-22 09:45 31.69143 9.28961 2264 ft 182 kts 97°
2026-04-22 09:45 31.69492 9.30445 2320 ft 207 kts 49°
2026-04-22 09:45 31.70788 9.31272 2762 ft 224 kts 17°
2026-04-22 09:45 31.72365 9.31624 3254 ft 238 kts 13°
2026-04-22 09:46 31.74080 9.31996 3539 ft 261 kts 14°
2026-04-22 09:46 31.75880 9.32459 4250 ft 266 kts 15°
2026-04-22 09:46 31.77678 9.32975 5190 ft 264 kts 16°
2026-04-22 09:46 31.79454 9.33513 6080 ft 264 kts 14°
2026-04-22 09:47 31.81268 9.34081 6656 ft 276 kts 14°
2026-04-22 09:47 31.83134 9.34662 7411 ft 276 kts 13°
2026-04-22 09:47 31.84957 9.35243 8251 ft 276 kts 13°
2026-04-22 09:47 31.86862 9.35850 8757 ft 290 kts 12°
2026-04-22 09:48 31.88834 9.36445 9540 ft 291 kts 11°
2026-04-22 09:48 31.90807 9.37016 10256 ft 296 kts 11°
2026-04-22 09:48 31.92845 9.37602 10753 ft 308 kts 10°
2026-04-22 09:48 31.94996 9.38215 10983 ft 330 kts 11°
2026-04-22 09:49 31.97301 9.38886 11166 ft 352 kts 11°
2026-04-22 09:49 31.99743 9.39603 11317 ft 372 kts 11°
2026-04-22 09:49 32.02289 9.40355 11522 ft 389 kts 11°
2026-04-22 09:49 32.04944 9.41143 11974 ft 396 kts 11°
2026-04-22 09:50 32.07623 9.41942 12616 ft 398 kts 11°
2026-04-22 09:50 32.10322 9.42747 13228 ft 401 kts 11°
2026-04-22 09:50 32.13039 9.43557 13792 ft 405 kts 11°
2026-04-22 09:50 32.15784 9.44373 14304 ft 408 kts 11°
2026-04-22 09:51 32.18546 9.45195 14873 ft 410 kts 11°
2026-04-22 09:51 32.21323 9.46022 15429 ft 413 kts 11°
2026-04-22 09:51 32.24118 9.46854 15967 ft 415 kts 12°
2026-04-22 09:51 32.26925 9.47690 16499 ft 418 kts 12°
2026-04-22 09:52 32.29753 9.48532 17034 ft 421 kts 12°
2026-04-22 09:52 32.32601 9.49382 17550 ft 423 kts 12°
2026-04-22 09:52 32.35464 9.50237 18063 ft 426 kts 12°
2026-04-22 09:52 32.38350 9.51098 18513 ft 428 kts 12°
2026-04-22 09:53 32.41215 9.51953 18936 ft 431 kts 12°
2026-04-22 09:53 32.44172 9.52837 19370 ft 434 kts 12°
2026-04-22 09:53 32.47073 9.53704 19786 ft 437 kts 12°
2026-04-22 09:53 32.50028 9.54588 20203 ft 439 kts 12°
2026-04-22 09:54 32.53008 9.55480 20619 ft 442 kts 12°
2026-04-22 09:54 32.56000 9.56377 21046 ft 444 kts 12°
2026-04-22 09:54 32.59014 9.57281 21444 ft 447 kts 12°
2026-04-22 09:54 32.62040 9.58189 21824 ft 450 kts 12°
2026-04-22 09:55 32.65087 9.59104 22201 ft 453 kts 12°
2026-04-22 09:55 32.68155 9.60026 22582 ft 455 kts 12°
2026-04-22 09:55 32.71229 9.60950 22960 ft 457 kts 12°
2026-04-22 09:55 32.74325 9.61882 23319 ft 460 kts 12°
2026-04-22 09:56 32.77432 9.62818 23627 ft 462 kts 12°
2026-04-22 09:56 32.80563 9.63761 23929 ft 464 kts 12°
2026-04-22 09:56 32.83699 9.64707 24235 ft 466 kts 12°
2026-04-22 09:56 32.86853 9.65659 24533 ft 468 kts 11°
2026-04-22 09:57 32.89975 9.66602 24827 ft 469 kts 11°
2026-04-22 09:57 32.93195 9.67575 25106 ft 471 kts 11°
2026-04-22 09:57 32.96335 9.68525 25386 ft 473 kts 11°
2026-04-22 09:57 32.99536 9.69494 25659 ft 475 kts 11°
2026-04-22 09:58 33.02750 9.70467 25937 ft 477 kts 11°
2026-04-22 09:58 33.05973 9.71444 26191 ft 479 kts 11°
2026-04-22 09:58 33.09210 9.72426 26454 ft 480 kts 11°
2026-04-22 09:58 33.12453 9.73411 26729 ft 482 kts 11°
2026-04-22 09:59 33.15700 9.74398 27096 ft 480 kts 11°
2026-04-22 09:59 33.18930 9.75382 27533 ft 478 kts 11°
2026-04-22 09:59 33.22157 9.76365 27931 ft 476 kts 11°
2026-04-22 09:59 33.25329 9.77331 28283 ft 476 kts 11°
2026-04-22 10:00 33.28535 9.78308 28633 ft 476 kts 11°
2026-04-22 10:00 33.31749 9.79288 29028 ft 475 kts 11°
2026-04-22 10:00 33.34951 9.80266 29436 ft 473 kts 11°
2026-04-22 10:00 33.38137 9.81239 29818 ft 473 kts 11°
2026-04-22 10:01 33.41316 9.82211 30147 ft 472 kts 10°
2026-04-22 10:01 33.44506 9.83187 30456 ft 472 kts 10°
2026-04-22 10:01 33.47684 9.84160 30789 ft 470 kts 10°
2026-04-22 10:01 33.50850 9.85130 31117 ft 469 kts 10°
2026-04-22 10:02 33.54011 9.86099 31423 ft 469 kts 10°
2026-04-22 10:02 33.57167 9.87068 31731 ft 468 kts 10°
2026-04-22 10:02 33.60327 9.88036 32017 ft 468 kts 10°
2026-04-22 10:02 33.63487 9.89005 32227 ft 469 kts 10°
2026-04-22 10:03 33.66648 9.89977 32419 ft 470 kts 10°
2026-04-22 10:03 33.69784 9.90943 32645 ft 471 kts 10°
2026-04-22 10:03 33.72967 9.91816 32944 ft 466 kts
2026-04-22 10:03 33.76170 9.92155 33250 ft 459 kts 356°